EET,Max TemperatureF,Mean TemperatureF,Min TemperatureF,Max Dew PointF,MeanDew PointF,Min DewpointF,Max Humidity, Mean Humidity, Min Humidity, Max Sea Level PressureIn, Mean Sea Level PressureIn, Min Sea Level PressureIn, Max VisibilityMiles, Mean VisibilityMiles, Min VisibilityMiles, Max Wind SpeedMPH, Mean Wind SpeedMPH, Max Gust SpeedMPH,PrecipitationIn, CloudCover, Events, WindDirDegrees
2012-11-1,60,54,48,45,43,41,82,64,55,30.24,30.20,30.15,6,6,6,8,3,,0.00,6,,153
2012-11-2,60,52,44,45,43,41,93,63,51,30.21,30.16,30.12,6,5,4,5,3,,0.00,6,,235
2012-11-3,53,52,51,50,49,48,88,85,82,30.18,30.15,30.15,6,5,4,5,2,,0.00,8,Rain,294
2012-11-4,53,50,48,48,47,46,100,85,77,30.27,30.23,30.21,6,5,2,5,3,,0.00,8,,260
2012-11-5,53,50,48,45,45,45,87,80,72,30.24,30.21,30.15,6,6,6,8,4,,0.00,7,,114
2012-11-6,46,44,42,43,43,43,100,90,87,30.21,30.17,30.15,4,2,0,6,3,,0.00,6,Fog,150
2012-11-7,46,44,41,43,41,41,100,89,81,30.24,30.20,30.15,6,4,2,5,2,,0.00,6,,143
2012-11-8,51,46,41,46,43,41,100,90,82,30.15,30.09,30.06,6,4,1,6,4,,0.00,6,Fog,142
2012-11-9,64,55,46,50,47,43,93,72,45,30.06,30.02,29.98,6,6,6,16,7,,0.00,6,Rain,235
2012-11-10,60,55,50,48,46,45,82,71,59,30.01,29.95,29.92,6,6,4,20,14,,0.00,5,Rain,130
2012-11-11,62,58,53,45,41,37,72,53,39,30.06,30.04,30.01,6,6,6,22,16,,0.00,5,Rain,135
2012-11-12,53,52,50,46,45,43,87,77,71,30.09,30.05,30.04,6,6,6,15,10,,0.00,7,Rain-Thunderstorm,280
2012-11-13,53,52,50,41,40,39,71,65,58,30.12,30.09,30.06,6,6,6,21,15,,0.00,6,Rain,48
2012-11-14,55,46,35,43,40,36,100,80,58,30.12,30.06,30.01,6,6,6,7,4,,0.00,5,,94
2012-11-15,59,46,32,39,35,30,100,74,39,30.24,30.19,30.15,6,6,4,5,3,,0.00,2,,254
2012-11-16,57,48,39,41,38,37,93,65,51,30.33,30.30,30.27,6,6,6,6,3,,0.00,1,,261
2012-11-17,55,44,32,41,38,30,93,72,54,30.33,30.29,30.24,6,5,0,5,3,,0.00,2,Fog,245
2012-11-18,53,42,32,41,38,30,100,76,58,30.27,30.20,30.15,6,4,0,6,3,,0.00,5,Fog,263
2012-11-19,50,42,35,37,35,32,100,70,50,30.15,30.12,30.09,6,6,6,10,8,,0.00,6,,286
2012-11-20,50,44,39,41,35,34,87,65,54,30.18,30.15,30.12,6,6,6,7,4,,0.00,6,,241
2012-11-21,55,48,42,41,39,37,93,67,51,30.18,30.14,30.09,6,6,6,7,3,,0.00,6,,290
2012-11-22,51,44,37,39,38,36,93,68,62,30.18,30.13,30.09,6,6,6,6,4,,0.00,6,,256
2012-11-23,55,48,41,41,36,34,87,67,47,30.15,30.10,30.09,6,6,6,7,4,,0.00,6,Rain,252
2012-11-24,50,46,41,39,36,32,87,68,54,30.09,30.06,30.04,6,6,6,8,5,,0.00,7,Rain,261
2012-11-25,46,44,42,41,40,39,93,83,76,30.09,30.04,30.01,6,5,2,7,4,,0.00,7,Rain,282
2012-11-26,53,44,35,39,36,34,100,66,47,30.06,30.03,30.01,6,6,0,9,6,,0.00,6,Fog,292
2012-11-27,51,42,33,34,31,28,93,59,41,30.12,30.10,30.09,6,6,6,5,4,,0.00,1,,244
2012-11-28,51,42,30,34,31,28,93,67,44,30.27,30.24,30.21,,,,7,3,,0.00,,,187
2012-11-29,50,41,32,34,32,28,87,64,50,30.27,30.22,30.18,6,6,6,4,2,,0.00,,,255
2012-11-30,50,40,30,32,30,27,93,63,40,30.30,30.26,30.24,4,3,2,6,3,,0.00,,,219